Ingeniero Juan Guillermo Villasana Airport

Jump to: basic info | weather | frequencies | runways | comments

Related pages: nearby airports | nearby navaids | notams | map

Basic information (top)

Codes: MMPC
Location: lon 20.077400, lat -98.782501, elev 7,600 ft / 2,316 m msl
Status: small_airport

Weather (top)

Current conditions for Licenciado Benito Juarez International Airport 42nm (77km) SSW (rec'd 2014/07/29 14:20Z):

MMMX 291420Z 06003KT 6SM SCT020 15/10 A3045 NOSIG RMK 8/100 HZY 

Airport forecast for Licenciado Benito Juarez International Airport 42nm (77km) SSW (rec'd 2014/07/29 06:18Z):

TAF COR TAF COR MMMX 291017Z 2906/3012 24006KT 3SM BR SCT080 SCT250 TX24/2921Z TN13/2912Z 
     FM291800 12016KT P6SM BKN030CB BKN080 BKN250 
      TEMPO 2923/3003 3SM TSRA BKN020CB OVC070 
     FM300600 35005KT P6SM SCT020 SCT090 BKN250

Frequencies (top)

Verify before use: may be inaccurate or out of date.

AFIS: 122.9 MHz (AFIS)

Runways (top)

03/21: 6,825 x 85 ft (2,080 x 26 m) — paved — not lighted — threshold 03 displaced 656 ft (200 m) — threshold 21 displaced 865 ft (264 m)

Latest comments (top)

No comments yet for Ingeniero Juan Guillermo Villasana Airport

More... (top)

See also NOTAMs and nearby airports and navaids, or visit the Ingeniero Juan Guillermo Villasana Airport page at the main OurAirports website..